x

Machrihanish (03111) Weather Station

11:00am - Fri 19th Jan 2018 All times are GMT.

  • Wind
    29mph, 39mph gusts
  • Air Temp 37°f
  • Sea Pressure 999mb
  • Machrihanish
  • Machrihanish

More Historic Weather Station data

Upgrade to MSW Pro to gain access to the past 30 days of data for over 8000 Wavebouys and Weather Stations around the globe.

Join

Comparision Forecast

View Surf forecast
   
Fri 01/19 11:00am 29 39 mph 999mb 37f
10:00am 22 34 mph 999mb 37f
9:00am 28 37 mph 999mb 36f
8:00am 30 38 mph 999mb 36f
7:00am 26 38 mph 999mb 36f
6:00am 26 36 mph 1000mb 37f
5:00am 24 32 mph 999mb 37f
4:00am 22 34 mph 1000mb 37f
3:00am 22 34 mph 1000mb 37f
2:00am 22 33 mph 1000mb 36f
1:00am 25 34 mph 1000mb 36f
12:00am 26 34 mph 1000mb 37f
Thu 01/18 11:00pm 19 32 mph 1000mb 37f
10:00pm 26 37 mph 1000mb 36f
9:00pm 13 32 mph 1000mb 34f
8:00pm 28 36 mph 999mb 37f
7:00pm 17 44 mph 999mb 37f
6:00pm 21 32 mph 998mb 39f
5:00pm 9
mph
998mb 39f
4:00pm 14
mph
997mb 39f
3:00pm 16
mph
997mb 37f
2:00pm 13
mph
997mb 37f
1:00pm 10
mph
996mb 37f
12:00pm 24 30 mph 996mb 39f
11:00am 19
mph
995mb 41f
10:00am 21
mph
995mb 39f
9:00am 14 29 mph 995mb 34f
8:00am 18
mph
994mb 39f
7:00am 15
mph
993mb 39f
6:00am 15
mph
993mb 39f
5:00am 11
mph
992mb 37f
4:00am 13
mph
992mb 37f
3:00am 11
mph
991mb 37f
2:00am 9
mph
990mb 34f
1:00am 6
mph
988mb 36f
12:00am 5
mph
987mb 34f
Wed 01/17 11:00pm 8
mph
988mb 34f
10:00pm 7
mph
990mb 36f
9:00pm 7
mph
991mb 36f
8:00pm 13
mph
993mb 37f
7:00pm 21 34 mph 995mb 39f
6:00pm 25 33 mph 996mb 39f
5:00pm 23 39 mph 997mb 41f
4:00pm 30 38 mph 997mb 41f
3:00pm 25 44 mph 997mb 41f
2:00pm 31 48 mph 998mb 41f
1:00pm 31 46 mph 998mb 43f
12:00pm 29 54 mph 998mb 39f
11:00am 28 44 mph 998mb 39f
10:00am 31 48 mph 997mb 41f
9:00am 30 47 mph 996mb 41f
8:00am 33 45 mph 996mb 41f
7:00am 28 43 mph 994mb 41f
6:00am 31 47 mph 994mb 41f
5:00am 32 51 mph 992mb 39f
4:00am 38 52 mph 990mb 41f
3:00am 30 52 mph 989mb 39f
2:00am 32 45 mph 988mb 39f
1:00am 33 41 mph 986mb 37f
12:00am 34 47 mph 985mb 37f
Tue 01/16 11:00pm 26 41 mph 984mb 36f
10:00pm 34 52 mph 983mb 34f
9:00pm 34 47 mph 982mb 36f
8:00pm 19 48 mph 983mb 34f
7:00pm 32 52 mph 982mb 34f
6:00pm 34 46 mph 982mb 34f
5:00pm 32 47 mph 981mb 36f
4:00pm 25 39 mph 982mb 37f
3:00pm 25 41 mph 982mb 36f
2:00pm 34 48 mph 983mb 36f
1:00pm 30 49 mph 983mb 37f
12:00pm  -  49 mph 984mb 37f
11:00am 30 44 mph 984mb 36f
10:00am 26 53 mph 984mb 36f
9:00am 31 48 mph 984mb 39f
8:00am 29 56 mph 984mb 39f
7:00am 33 46 mph 983mb 39f
6:00am 38 56 mph 984mb 36f
5:00am 29 52 mph 984mb 37f
4:00am 25 52 mph 984mb 36f
3:00am 28 49 mph 984mb 37f
2:00am 30 41 mph 984mb 39f
1:00am 22 39 mph 984mb 37f
12:00am 25 49 mph 984mb 37f
Mon 01/15 11:00pm 22 47 mph 984mb 39f
10:00pm 17 51 mph 984mb 37f
9:00pm 21 41 mph 984mb 39f
8:00pm 30 45 mph 984mb 39f
7:00pm 30 40 mph 984mb 39f
6:00pm 30 47 mph 985mb 37f
5:00pm 26 48 mph 985mb 36f
4:00pm 25 48 mph 985mb 41f
3:00pm 26 36 mph 986mb 43f
2:00pm  -  47 mph 986mb 41f
1:00pm 28 47 mph 987mb 43f
12:00pm 23 33 mph 987mb 45f